TimeCST,TemperatureF,Dew PointF,Humidity,Sea Level PressureIn,VisibilityMPH,Wind Direction,Wind SpeedMPH,Gust SpeedMPH,PrecipitationIn,Events,Conditions,WindDirDegrees,DateUTC
12:15 AM,23.0,14.9,71,29.98,10.0,NW,8.1,-,N/A,,Clear,320,2014-02-27 06:15:00
12:35 AM,23.7,14.2,67,29.99,10.0,NNW,9.2,-,N/A,,Clear,340,2014-02-27 06:35:00
12:55 AM,22.8,13.5,67,30.00,10.0,NNW,8.1,-,N/A,,Clear,330,2014-02-27 06:55:00
1:15 AM,22.5,13.1,67,30.01,10.0,North,8.1,-,N/A,,Clear,350,2014-02-27 07:15:00
1:35 AM,22.1,12.9,68,30.01,10.0,North,10.4,-,N/A,,Clear,10,2014-02-27 07:35:00
1:55 AM,21.9,11.3,64,30.03,10.0,NNE,9.2,-,N/A,,Clear,20,2014-02-27 07:55:00
2:15 AM,19.2,10.2,68,30.03,10.0,North,5.8,-,N/A,,Clear,10,2014-02-27 08:15:00
2:35 AM,17.8,9.9,71,30.04,10.0,North,5.8,-,N/A,,Clear,10,2014-02-27 08:35:00
2:55 AM,17.1,8.6,69,30.05,10.0,NNE,4.6,-,N/A,,Clear,20,2014-02-27 08:55:00
3:15 AM,16.5,8.1,69,30.06,10.0,North,5.8,-,N/A,,Clear,10,2014-02-27 09:15:00
3:35 AM,16.0,7.2,68,30.06,10.0,North,5.8,-,N/A,,Clear,10,2014-02-27 09:35:00
3:55 AM,15.3,7.7,72,30.06,10.0,North,6.9,-,N/A,,Clear,360,2014-02-27 09:55:00
4:15 AM,15.6,6.8,68,30.07,10.0,NNE,10.4,-,N/A,,Clear,30,2014-02-27 10:15:00
4:35 AM,14.0,6.6,72,30.08,10.0,NE,9.2,-,N/A,,Clear,40,2014-02-27 10:35:00
4:55 AM,13.1,5.9,73,30.09,10.0,NE,11.5,-,N/A,,Clear,40,2014-02-27 10:55:00
5:15 AM,12.2,3.7,69,30.10,10.0,NNE,12.7,-,N/A,,Clear,30,2014-02-27 11:15:00
5:35 AM,11.5,3.0,69,30.12,10.0,NNE,9.2,-,N/A,,Clear,30,2014-02-27 11:35:00
5:55 AM,10.8,2.7,70,30.12,10.0,NE,10.4,-,N/A,,Clear,40,2014-02-27 11:55:00
6:15 AM,10.4,1.8,68,30.12,10.0,NE,11.5,-,N/A,,Clear,40,2014-02-27 12:15:00
6:35 AM,9.9,1.8,70,30.12,10.0,NE,15.0,-,N/A,,Clear,40,2014-02-27 12:35:00
6:55 AM,9.0,2.1,74,30.12,10.0,NE,16.1,-,N/A,,Clear,40,2014-02-27 12:55:00
7:15 AM,8.4,0.3,70,30.12,10.0,NE,12.7,-,N/A,,Clear,40,2014-02-27 13:15:00
7:35 AM,8.6,-1.7,63,30.15,10.0,NE,8.1,-,N/A,,Clear,40,2014-02-27 13:35:00
7:55 AM,9.0,-2.4,60,30.16,10.0,NNE,11.5,-,N/A,,Clear,30,2014-02-27 13:55:00
8:15 AM,9.3,-3.3,57,30.17,10.0,NE,9.2,-,N/A,,Clear,50,2014-02-27 14:15:00
8:35 AM,9.5,-5.3,51,30.18,10.0,NE,8.1,-,N/A,,Clear,50,2014-02-27 14:35:00
8:55 AM,10.4,-5.6,49,30.17,10.0,NNE,8.1,-,N/A,,Clear,30,2014-02-27 14:55:00
9:15 AM,10.8,-4.4,51,30.19,10.0,NNE,6.9,-,N/A,,Clear,30,2014-02-27 15:15:00
9:35 AM,11.3,-4.2,50,30.18,10.0,NE,6.9,-,N/A,,Clear,40,2014-02-27 15:35:00
9:55 AM,11.7,-5.1,47,30.18,10.0,NNE,6.9,-,N/A,,Clear,30,2014-02-27 15:55:00
10:15 AM,12.9,-9.0,37,30.18,10.0,ENE,8.1,-,N/A,,Clear,60,2014-02-27 16:15:00
10:35 AM,12.7,-8.7,38,30.18,10.0,NE,10.4,-,N/A,,Clear,40,2014-02-27 16:35:00
10:55 AM,13.8,-8.9,36,30.17,10.0,ENE,9.2,-,N/A,,Clear,70,2014-02-27 16:55:00
11:15 AM,13.6,-9.0,36,30.16,10.0,NE,8.1,-,N/A,,Clear,40,2014-02-27 17:15:00
11:35 AM,15.4,-7.8,35,30.16,10.0,Calm,Calm,-,N/A,,Clear,0,2014-02-27 17:35:00
11:55 AM,16.0,-7.2,35,30.14,10.0,NNE,8.1,-,N/A,,Clear,20,2014-02-27 17:55:00
12:15 PM,17.1,-8.1,32,30.12,10.0,ENE,10.4,-,N/A,,Clear,60,2014-02-27 18:15:00
12:35 PM,18.1,-6.0,34,30.11,10.0,ENE,4.6,9.2,N/A,,Clear,70,2014-02-27 18:35:00
12:55 PM,19.0,-5.1,34,30.09,10.0,ENE,11.5,-,N/A,,Clear,60,2014-02-27 18:55:00
1:15 PM,19.6,-5.8,33,30.07,10.0,ENE,9.2,-,N/A,,Clear,70,2014-02-27 19:15:00
1:35 PM,20.3,-4.5,33,30.07,10.0,East,8.1,-,N/A,,Clear,80,2014-02-27 19:35:00
1:55 PM,20.8,-4.7,32,30.07,10.0,NE,8.1,-,N/A,,Clear,50,2014-02-27 19:55:00
2:15 PM,20.8,-5.4,31,30.06,10.0,ESE,3.5,-,N/A,,Scattered Clouds,110,2014-02-27 20:15:00
2:35 PM,21.0,-6.2,30,30.05,10.0,SE,6.9,-,N/A,,Overcast,130,2014-02-27 20:35:00
2:55 PM,21.2,-5.8,30,30.04,10.0,ESE,5.8,-,N/A,,Overcast,110,2014-02-27 20:55:00
3:15 PM,22.3,-5.4,30,30.03,10.0,East,10.4,-,N/A,,Overcast,100,2014-02-27 21:15:00
3:35 PM,22.3,-6.5,28,30.01,10.0,ESE,8.1,-,N/A,,Overcast,110,2014-02-27 21:35:00
3:55 PM,22.3,-5.3,30,30.01,10.0,ESE,10.4,-,N/A,,Overcast,120,2014-02-27 21:55:00
4:20 PM,22.3,-6.7,28,30.01,10.0,SE,6.9,-,N/A,,Overcast,140,2014-02-27 22:20:00
4:35 PM,22.1,-5.3,30,30.00,10.0,East,8.1,-,N/A,,Mostly Cloudy,100,2014-02-27 22:35:00
4:55 PM,21.7,-5.3,30,30.00,10.0,ESE,10.4,-,N/A,,Mostly Cloudy,110,2014-02-27 22:55:00
5:15 PM,21.7,-3.5,33,29.99,10.0,ESE,9.2,-,N/A,,Overcast,110,2014-02-27 23:15:00
5:35 PM,21.7,-3.5,33,29.99,10.0,ESE,9.2,-,N/A,,Overcast,120,2014-02-27 23:35:00
5:55 PM,21.6,-2.6,35,29.99,10.0,SE,5.8,-,N/A,,Overcast,140,2014-02-27 23:55:00
6:15 PM,21.0,-2.0,36,29.99,10.0,ESE,5.8,-,N/A,,Overcast,120,2014-02-28 00:15:00
6:35 PM,21.0,-2.2,36,29.99,10.0,SE,6.9,-,N/A,,Mostly Cloudy,130,2014-02-28 00:35:00
6:55 PM,21.0,-2.6,36,29.99,10.0,SE,6.9,-,N/A,,Scattered Clouds,130,2014-02-28 00:55:00
7:15 PM,19.4,-1.3,40,29.98,10.0,ESE,8.1,-,N/A,,Clear,120,2014-02-28 01:15:00
7:35 PM,19.0,-1.3,41,29.98,10.0,ESE,4.6,-,N/A,,Clear,110,2014-02-28 01:35:00
7:55 PM,18.3,-0.8,43,29.99,10.0,East,4.6,-,N/A,,Clear,90,2014-02-28 01:55:00
8:15 PM,17.6,0.1,46,29.98,10.0,East,5.8,-,N/A,,Clear,100,2014-02-28 02:15:00
8:35 PM,17.8,0.3,47,29.96,10.0,East,6.9,-,N/A,,Clear,90,2014-02-28 02:35:00
8:55 PM,16.9,4.1,57,29.96,10.0,ENE,8.1,-,N/A,,Clear,70,2014-02-28 02:55:00
9:15 PM,15.8,5.0,62,29.95,10.0,East,6.9,-,N/A,,Clear,80,2014-02-28 03:15:00
9:35 PM,15.6,4.3,61,29.94,10.0,East,8.1,-,N/A,,Clear,90,2014-02-28 03:35:00
9:55 PM,15.4,4.6,62,29.93,10.0,East,6.9,-,N/A,,Mostly Cloudy,90,2014-02-28 03:55:00
10:15 PM,15.4,4.3,61,29.92,10.0,East,6.9,-,N/A,,Scattered Clouds,100,2014-02-28 04:15:00
10:35 PM,16.5,3.9,58,29.91,10.0,ESE,8.1,-,N/A,,Clear,120,2014-02-28 04:35:00
10:55 PM,18.0,2.7,51,29.90,10.0,ESE,11.5,-,N/A,,Clear,120,2014-02-28 04:55:00
11:15 PM,18.5,2.3,49,29.89,10.0,SE,8.1,-,N/A,,Clear,130,2014-02-28 05:15:00
11:35 PM,19.4,1.9,47,29.88,10.0,ESE,12.7,18.4,N/A,,Clear,120,2014-02-28 05:35:00
11:55 PM,19.8,1.6,45,29.88,10.0,SE,13.8,18.4,N/A,,Clear,130,2014-02-28 05:55:00